Weather Roundup
Issued by NWS

Home | Current Version | Previous Version | Text Only | Print | Product List | Glossary On
Versions: 1 2 3 4 5 6 7 8 9 10 11 12 13 14 15 16 17 18 19 20 21 22 23 24 25 26 27 28 29 30 31 32 33 34 35 36 37 38 39 40 41 42 43 44 45 46 47 48 49 50
000
NZUS93 KARX 220359
HRRWXR

CURRENT HOURLY OBSERVATIONS ACROSS
MUCH OF THE UPPER MISSISSIPPI VALLEY
NATIONAL WEATHER SERVICE LA CROSSE WI
1100 PM CDT MON JUL 21 2014


...SOUTHEAST MINNESOTA...


CITY           SKY/WX    TMP DP  RH WIND       PRES   REMARKS
ROCHESTER      MOCLDY    79  71  76 S14G23    29.91S
ROCHESTER/MAYO FAIR      79  70  72 SE15G21   29.89F
WINONA         CLEAR     79  70  73 S7        29.89F
AUSTIN         MOCLDY    81  73  78 S10G17    29.88F
ALBERT LEA     MOCLDY    81  75  83 S14G20    29.86F
DODGE CENTER   MOCLDY    81  73  78 S18G25    29.88F
PRESTON        CLEAR     76  74  94 S14       29.92F
OWATONNA       PTCLDY    81  73  78 S14G23    29.85F
FARIBAULT      PTCLDY    84  72  65 S13G18    29.84S
$$

...ELSEWHERE IN MINNESOTA...


CITY           SKY/WX    TMP DP  RH WIND       PRES   REMARKS
MINNEAPOLIS    PTCLDY    82  74  76 S16G25    29.80F
INTNL FALLS    CLOUDY    79  73  82 NE8       29.71F
DULUTH         CLOUDY    80  72  76 SE10      29.81F
RED WING       MOCLDY    82  72  69 S12G22    29.83F
REDWOOD FALLS  PTCLDY    80  76  87 S14       29.75F
MANKATO        CLEAR     82  73  74 S14G20    29.82S
WORTHINGTON    PTCLDY    81  75  83 S10G16    29.84S
FAIRMONT       PTCLDY    81  73  78 S13       29.83S
$$

...SOUTHWEST WISCONSIN...


CITY           SKY/WX    TMP DP  RH WIND       PRES   REMARKS
LA CROSSE      CLOUDY    82  68  62 S10       29.92F
PRAIRIE DU CHI CLEAR     79  66  65 SE7       29.96F
BOSCOBEL       CLEAR     79  68  69 S5        29.97F
LONE ROCK      NOT AVBL
PLATTEVILLE    CLEAR     75  69  81 S8        30.01S
FORT MC COY    MOCLDY    77  65  66 SE6       29.96F
VIROQUA        FAIR      75  68  80 SE8       29.98F
WIS DELLS      CLEAR     75  66  71 S7        29.99F
$$

...ELSEWHERE IN WISCONSIN...


CITY           SKY/WX    TMP DP  RH WIND       PRES   REMARKS
MILWAUKEE      CLEAR     73  64  73 S7        30.03F
MADISON        CLEAR     78  68  71 S12       30.01S
GREEN BAY      CLEAR     72  65  78 S8        29.99F
EAU CLAIRE     NOT AVBL
BLACK RVR FLS  CLOUDY    78  67  69 S3        29.94F
MEDFORD        CLEAR     73  68  82 S10       29.97F
WAUSAU         MOCLDY    75  68  78 S6        29.97R
WIS RAPIDS     CLEAR     76  67  73 S7        29.99S
MARSHFIELD     CLEAR     75  67  76 S13       29.97F
RICE LAKE      CLOUDY    80  69  70 SE15      29.88F
$$

...NORTHEAST IOWA...


CITY           SKY/WX    TMP DP  RH WIND       PRES   REMARKS
WATERLOO       PTCLDY    80  71  74 S16       29.92F
DUBUQUE        CLEAR     74  69  85 S12       30.00S
DECORAH        CLOUDY    77  72  83 S10       29.94S
MASON CITY     MOCLDY    80  76  87 SE13      29.90F
CHARLES CITY   MOCLDY    79  73  83 S9        29.94R
OELWEIN        PTCLDY    77  73  88 S12       29.97S
$$

...ELSEWHERE IN IOWA...


CITY           SKY/WX    TMP DP  RH WIND       PRES   REMARKS
DES MOINES     CLEAR     84  75  74 S13       29.91S HX  92
IOWA CITY      CLEAR     76  70  82 SE9       29.99S
FORT DODGE     MOCLDY    82  75  78 S10       29.89S
MARSHALLTOWN   CLOUDY    81  75  82 SE12      29.93S
CEDAR RAPIDS   CLEAR     77  68  73 S10       29.97S
$$

...NORTHERN ILLINOIS...


CITY           SKY/WX    TMP DP  RH WIND       PRES   REMARKS
CHICAGO-OHARE  CLEAR     75  63  66 S9        30.05F
DUPAGE         CLEAR     72  65  78 S7        30.05F
CHICAGO-MIDWAY CLEAR     79  66  64 S8        30.06F
MOLINE         CLEAR     76  69  79 SE6       30.01S
ROCKFORD       CLEAR     74  67  78 S12       30.05F
STERLING       CLEAR     73  68  83 S5        30.04S
PEORIA         CLEAR     76  67  73 SE7       30.05F
$$

NOTE: "FAIR" INDICATES FEW OR NO CLOUDS BELOW 12,000 FEET WITH NO
SIGNIFICANT WEATHER AND/OR OBSTRUCTIONS TO VISIBILITY. WIND
SPEEDS ARE IN MILES-PER-HOUR.



USA.gov is the U.S. government's official web portal to all federal, state and local government web resources and services.